Simultaneous Nadir Overpasses (SNOs) Predictions

Prediction of SNOs between FY3D and AQUA Satellite Orbit:

Table of predicted SNOs for the next 14.0 days since TLE Epoch: 12/25/2021
Index Date (FY3D) Time (FY3D) Lat,Lon (FY3D) SZA (FY3D ) Date (AQUA) Time (AQUA) Lat,Lon (AQUA) SZA (AQUA ) Distance(km) Time Diff (sec)
1 12/27/2021 16:38:51 71.95, -71.95 95.16 12/27/2021 16:38:58 71.94, -71.88 95.15 2.62 7
2 12/27/2021 17:28:38 -68.91, 100.26 87.90 12/27/2021 17:27:28 -68.91, 100.26 87.91 0.20 70
3 12/30/2021 07:19:11 81.04, 18.54 107.47 12/30/2021 07:20:24 81.51, 19.40 107.64 53.80 73
4 12/30/2021 08:05:47 -71.30,-122.53 85.66 12/30/2021 08:05:48 -71.30,-122.57 85.65 1.46 1
5 12/30/2021 08:54:07 63.40, 54.53 86.60 12/30/2021 08:52:54 63.36, 54.14 86.53 19.67 73
6 01/01/2022 22:42:58 -73.65, 13.58 83.40 01/01/2022 22:44:09 -73.64, 13.66 83.43 2.56 71
7 01/01/2022 23:32:53 71.06,-173.89 93.90 01/01/2022 23:32:48 71.07,-173.96 93.91 2.71 5
8 01/04/2022 14:10:01 73.29, -37.36 95.97 01/04/2022 14:11:06 73.29, -37.37 95.96 0.37 65
9 01/04/2022 15:00:08 -71.33, 133.86 86.08 01/04/2022 14:59:55 -71.33, 133.87 86.09 0.59 13
10 01/07/2022 05:37:12 -73.34, -89.25 84.28 01/07/2022 05:38:09 -73.34, -89.22 84.30 1.17 57



Historial Predications of SNOs between FY3D and AQUA
